Regional Weather Roundup
Issued by NWS

Home | Current Version | Previous Version | Graphics & Text | Print | Product List | Glossary On
Versions: 1 2 3 4 5 6 7 8 9 10 11 12 13 14 15 16 17 18 19 20 21 22 23 24 25 26 27 28 29 30 31 32 33 34 35 36 37 38 39 40 41 42 43 44 45 46 47 48 49 50
329
ASUS45 KPSR 231710
RWRAZ

ARIZONA HOURLY REGIONAL WEATHER ROUNDUP
NATIONAL WEATHER SERVICE PHOENIX AZ
1000 AM MST THU FEB 23 2017

NOTE: FAIR INDICATES FEW OR NO CLOUDS BELOW 12,000 FEET WITH NO
SIGNIFICANT WEATHER AND/OR OBSTRUCTIONS TO VISIBILITY.

AZZ001>003-036-231800-
NORTHWEST ARIZONA

CITY           SKY/WX    TMP DP  RH WIND       PRES   REMARKS
BULLHEAD CITY  SUNNY     52  28  40 CALM      29.99R
KINGMAN        SUNNY     45  13  27 NW3       29.94R
$$

AZZ004>008-015-016-018-231800-
NORTH CENTRAL ARIZONA

CITY           SKY/WX    TMP DP  RH WIND       PRES   REMARKS
GRAND CANYON   SUNNY     29  16  58 W13G20    29.83S WCI  19
WILLIAMS       PTSUNNY   30  19  64 W9        29.86R WCI  22
PRESCOTT       MOSUNNY   39  23  52 VRB3      29.89R
FLAGSTAFF      SUNNY     30  13  49 W10G18    29.83R WCI  21
PAYSON         SUNNY     41  18  38 VRB7G14   29.90R
PAGE           SUNNY     41   9  26 W10G22    29.82R
$$

AZZ009>014-017-231800-
NORTHEAST ARIZONA

CITY           SKY/WX    TMP DP  RH WIND       PRES   REMARKS
WINSLOW        PTSUNNY   42  13  30 NW15      29.85F
SAINT JOHNS    SUNNY     42  14  32 NW20      29.81F
WINDOW ROCK    MOSUNNY   35  10  35 W18G25    29.80S WCI  24
SHOW LOW       SUNNY     37   5  25 SW16G26   29.85F WCI  28
$$

AZZ023-231800-
GREATER PHOENIX AREA

CITY           SKY/WX    TMP DP  RH WIND       PRES   REMARKS
PHOENIX        SUNNY     57  26  30 SW8       29.93S
BUCKEYE        SUNNY     54  28  37 SW7       29.97R
GLENDALE       SUNNY     55  30  38 S10       29.96R
LUKE AFB       SUNNY     54  29  37 S10       29.94R
DEER VALLEY    SUNNY     51  27  39 SW9       29.93R
SCOTTSDALE     SUNNY     52  25  35 VRB7      29.94S
MESA-FALCON    SUNNY    N/A N/A N/A MISG      29.91S
MESA-GATEWAY   SUNNY     54  28  37 W9        29.95R
CHANDLER       SUNNY     55  25  30 W7        29.94
$$

AZZ027-028-231800-
SOUTHWEST MARICOPA COUNTY AND PINAL COUNTY

CITY           SKY/WX    TMP DP  RH WIND       PRES   REMARKS
CASA GRANDE    NOT AVBL
GILA BEND      SUNNY     56  22  27 W10       29.98R
$$

AZZ503-504-507>509-231800-
SOUTHEAST ARIZONA

CITY           SKY/WX    TMP DP  RH WIND       PRES   REMARKS
TUCSON         SUNNY     54  23  30 NW6       29.96S
DAVIS-MONTHAN  SUNNY     53  26  35 NW3       29.95S
RYAN FIELD     SUNNY     54  21  28 N6        29.97S
NOGALES        SUNNY     55  38  52 SW3       29.94R
SIERRA VISTA   SUNNY     58  29  32 W16G25    29.94R
DOUGLAS        SUNNY     59  40  49 W10       29.91F
SAFFORD        SUNNY     56  19  23 NW16G25   29.87R
$$

AZZ020-021-025-026-031-231800-
SOUTHWEST ARIZONA

CITY           SKY/WX    TMP DP  RH WIND       PRES   REMARKS
YUMA           SUNNY     59  23  25 N9        30.01S
$$

CAZ031-033-041-043-047-048-061-231800-
SOUTHERN CALIFORNIA

CITY           SKY/WX    TMP DP  RH WIND       PRES   REMARKS
DOWNTOWN L.A.  SUNNY     55  27  34 NW8       30.09S
L.A. AIRPORT   MOSUNNY   54  28  36 N15G22    30.10S
SAN DIEGO      PTSUNNY   58  38  47 NW13      30.10S
BURBANK        SUNNY     50  25  37 N14G28    30.09R
ONTARIO        MOSUNNY   49  33  54 CALM      30.07S
RIVERSIDE      SUNNY     49  37  63 CALM      30.07S
PALM SPRINGS   SUNNY     57  37  47 CALM      30.01S
EL CENTRO NAS  MOSUNNY   61  28  28 NW15      30.03S
BLYTHE         SUNNY     57  17  21 NW16G22   30.01R
NEEDLES        SUNNY     55  20  25 VRB5      29.98R
$$

NVZ020-UTZ003-231800-
SOUTHERN NEVADA-UTAH

CITY           SKY/WX    TMP DP  RH WIND       PRES   REMARKS
LAS VEGAS      MOSUNNY   49   7  18 NW13      29.95R
SALT LAKE CITY FLURRIES  30  25  81 W16       29.77R WCI  19
$$

NMZ009-TXZ055-231800-
NEW MEXICO-WEST TEXAS

CITY           SKY/WX    TMP DP  RH WIND       PRES   REMARKS
ALBUQUERQUE    MOSUNNY   51  16  24 W29G39    29.73R
EL PASO        MOSUNNY   68  33  27 SW32G39   29.77F
$$


........................KEY........................
SKY/WX - SKY CONDITION/WEATHER
TMP    - TEMPERATURE IN FAHRENHEIT
DP     - DEW POINT IN FAHRENHEIT
RH     - RELATIVE HUMIDITY IN PERCENT
WIND   - DIRECTION AND SPEED IN MILES PER HOUR (MPH)
VRB    - VARIABLE WIND DIRECTION
PRES   - MEAN SEA LEVEL PRESSURE IN INCHES OF MERCURY
         F - FALLING PRESSURE   R - RISING PRESSURE
         S - STEADY PRESSURE
VSB    - VISIBILITY IN MILES
HX     - HEAT INDEX IN FAHRENHEIT
WCI    - WIND CHILL INDEX IN FAHRENHEIT
TC     - TEMPERATURE IN CELSIUS WHICH IS ALSO KNOWN AS
         TEMPERATURE IN CENTIGRADE
AFB    - AIR FORCE BASE
         LUKE AFB IS LUKE AIR FORCE BASE
         DAVIS-MONTHAN IS DAVIS-MONTHAN AIR FORCE BASE
NAS    - NAVAL AIR STATION
         EL CENTRO NAS IS EL CENTRO NAVAL AIR STATION
N/A    - NOT AVAILABLE





USA.gov is the U.S. government's official web portal to all federal, state and local government web resources and services.